Torna al catalogo

CZ-6A DEB

AttivoSSO
NORAD 55542·DEBRIS·🇨🇳 China

Lanciato Nov 11, 2022 da Taiyuan Satellite Launch Center

Loading…

Prossimi Passaggi (prossime 24 ore)

TLE

AggiornatoSource: Space-Track

Epoca: Sep 14, 2026, 00:06 UTC

1 55542U 22151YQ  26257.00441244  .00001190  00000-0  53182-3 0  9996
2 55542  98.7977 279.2671 0013513 346.2948  13.7862 14.24542937193453

Traccia CZ-6A DEB in tempo reale con AllMySat

Download on the App Store